Location: Dötzum
(52.0808°N, 9.8063°E)
Time: 06:02:52
(UTC+00:00)

Cosmos 1726 Rocket - Pass Details

Date: 27 May 2022
Orbit: 601 x 630 km, 82.5° (Epoch: 26 June)

Event Time Altitude Azimuth Distance (km) Brightness Sun altitude
Rises 01:43:54 0° 352° (N) 2,923 7.8 -10.0°
Reaches altitude 10° 01:46:13 10° 357° (N) 2,007 7.0 -9.8°
Maximum altitude 01:50:34 53° 75° (ENE) 764 4.4 -9.4°
Drops below altitude 10° 01:54:51 10° 153° (SSE) 1,974 5.9 -9.1°
Sets 01:57:06 0° 158° (SSE) 2,869 6.7 -8.8°
